Time,TemperatureF,DewpointF,PressureIn,WindDirection,WindDirectionDegrees,WindSpeedMPH,WindSpeedGustMPH,Humidity,HourlyPrecipIn,Conditions,Clouds,dailyrainin,SoftwareType,DateUTC
2013-02-25 00:01:00,20.0,6.0,-100.00,North,0,0.0,4.0,52,0.00,,,-99.99,,2013-02-25 07:01:00,
2013-02-25 00:11:00,20.0,6.0,-100.00,WNW,300,4.0,5.0,53,0.00,,,-99.99,,2013-02-25 07:11:00,
2013-02-25 00:21:00,20.0,6.0,-100.00,NW,310,3.0,6.0,53,0.00,,,-99.99,,2013-02-25 07:21:00,
2013-02-25 00:31:00,20.0,6.0,-100.00,WNW,300,4.0,7.0,53,0.00,,,-99.99,,2013-02-25 07:31:00,
2013-02-25 00:41:00,20.0,6.0,-100.00,NW,310,4.0,7.0,52,0.00,,,-99.99,,2013-02-25 07:41:00,
2013-02-25 00:51:00,19.0,5.0,-100.00,WNW,300,4.0,7.0,53,0.00,,,-99.99,,2013-02-25 07:51:00,
2013-02-25 01:01:00,19.0,5.0,-100.00,WNW,290,6.0,9.0,53,0.00,,,-99.99,,2013-02-25 08:01:00,
2013-02-25 01:11:00,18.0,4.0,-100.00,WNW,300,4.0,8.0,53,0.00,,,-99.99,,2013-02-25 08:11:00,
2013-02-25 01:21:00,18.0,4.0,-100.00,WNW,295,5.0,7.0,53,0.00,,,-99.99,,2013-02-25 08:21:00,
2013-02-25 01:31:00,18.0,4.0,-100.00,WNW,295,4.0,9.0,53,0.00,,,-99.99,,2013-02-25 08:31:00,
2013-02-25 01:41:00,17.0,3.0,-100.00,NW,310,3.0,7.0,53,0.00,,,-99.99,,2013-02-25 08:41:00,
2013-02-25 01:52:00,17.0,3.0,-100.00,WNW,295,4.0,7.0,54,0.00,,,-99.99,,2013-02-25 08:52:00,
2013-02-25 02:01:00,17.0,3.0,-100.00,WNW,295,5.0,9.0,54,0.00,,,-99.99,,2013-02-25 09:01:00,
2013-02-25 02:12:00,16.0,2.0,-100.00,WNW,295,6.0,11.0,54,0.00,,,-99.99,,2013-02-25 09:12:00,
2013-02-25 02:21:00,16.0,3.0,-100.00,NW,320,4.0,10.0,54,0.00,,,-99.99,,2013-02-25 09:21:00,
2013-02-25 02:31:00,16.0,3.0,-100.00,WNW,295,4.0,8.0,55,0.00,,,-99.99,,2013-02-25 09:31:00,
2013-02-25 02:41:00,16.0,2.0,-100.00,WNW,300,3.0,8.0,55,0.00,,,-99.99,,2013-02-25 09:41:00,
2013-02-25 02:51:00,16.0,3.0,-100.00,WNW,295,4.0,7.0,54,0.00,,,-99.99,,2013-02-25 09:51:00,
2013-02-25 03:01:00,15.0,2.0,-100.00,WNW,295,6.0,8.0,55,0.00,,,-99.99,,2013-02-25 10:01:00,
2013-02-25 03:11:00,14.0,2.0,-100.00,NW,305,4.0,8.0,56,0.00,,,-99.99,,2013-02-25 10:11:00,
2013-02-25 03:21:00,14.0,2.0,-100.00,NW,305,4.0,9.0,56,0.00,,,-99.99,,2013-02-25 10:21:00,
2013-02-25 03:31:00,14.0,1.0,-100.00,NW,305,4.0,7.0,57,0.00,,,-99.99,,2013-02-25 10:31:00,
2013-02-25 03:41:00,13.0,1.0,-100.00,WNW,295,4.0,8.0,58,0.00,,,-99.99,,2013-02-25 10:41:00,
2013-02-25 03:52:00,13.0,1.0,-100.00,WNW,295,5.0,9.0,59,0.00,,,-99.99,,2013-02-25 10:52:00,
2013-02-25 04:01:00,13.0,1.0,-100.00,WNW,285,6.0,9.0,59,0.00,,,-99.99,,2013-02-25 11:01:00,
2013-02-25 04:11:00,12.0,1.0,-100.00,WNW,300,5.0,8.0,59,0.00,,,-99.99,,2013-02-25 11:11:00,
2013-02-25 04:21:00,12.0,1.0,-100.00,WNW,300,4.0,9.0,60,0.00,,,-99.99,,2013-02-25 11:21:00,
2013-02-25 04:32:00,12.0,1.0,-100.00,WNW,295,4.0,8.0,60,0.00,,,-99.99,,2013-02-25 11:32:00,
2013-02-25 04:42:00,12.0,1.0,-100.00,WNW,300,2.0,6.0,61,0.00,,,-99.99,,2013-02-25 11:42:00,
2013-02-25 04:52:00,11.0,1.0,-100.00,WNW,290,4.0,7.0,61,0.00,,,-99.99,,2013-02-25 11:52:00,
2013-02-25 05:01:00,12.0,1.0,-100.00,WNW,300,2.0,6.0,61,0.00,,,-99.99,,2013-02-25 12:01:00,
2013-02-25 05:11:00,12.0,1.0,-100.00,WNW,300,4.0,7.0,62,0.00,,,-99.99,,2013-02-25 12:11:00,
2013-02-25 05:21:00,12.0,1.0,-100.00,WNW,290,4.0,7.0,62,0.00,,,-99.99,,2013-02-25 12:21:00,
2013-02-25 05:32:00,11.0,1.0,-100.00,WNW,290,4.0,9.0,62,0.00,,,-99.99,,2013-02-25 12:32:00,
2013-02-25 05:42:00,11.0,1.0,-100.00,WNW,295,4.0,9.0,62,0.00,,,-99.99,,2013-02-25 12:42:00,
2013-02-25 05:53:00,11.0,1.0,-100.00,WNW,300,6.0,8.0,62,0.00,,,-99.99,,2013-02-25 12:53:00,
2013-02-25 06:02:00,11.0,1.0,-100.00,WNW,295,4.0,8.0,62,0.00,,,-99.99,,2013-02-25 13:02:00,
2013-02-25 06:12:00,11.0,1.0,-100.00,WNW,295,6.0,9.0,62,0.00,,,-99.99,,2013-02-25 13:12:00,
2013-02-25 06:22:00,11.0,1.0,-100.00,WNW,300,4.0,7.0,62,0.00,,,-99.99,,2013-02-25 13:22:00,
2013-02-25 06:31:00,11.0,1.0,-100.00,WNW,295,4.0,7.0,63,0.00,,,-99.99,,2013-02-25 13:31:00,
2013-02-25 06:41:00,10.0,1.0,-100.00,WNW,295,4.0,7.0,63,0.00,,,-99.99,,2013-02-25 13:41:00,
2013-02-25 06:52:00,10.0,0.0,-100.00,NW,310,4.0,8.0,64,0.00,,,-99.99,,2013-02-25 13:52:00,
2013-02-25 07:02:00,10.0,0.0,-100.00,WNW,290,5.0,7.0,64,0.00,,,-99.99,,2013-02-25 14:02:00,
2013-02-25 07:14:00,10.0,0.0,-100.00,WNW,300,4.0,6.0,64,0.00,,,-99.99,,2013-02-25 14:14:00,
2013-02-25 07:21:00,10.0,0.0,-100.00,WNW,290,4.0,6.0,64,0.00,,,-99.99,,2013-02-25 14:21:00,
2013-02-25 07:31:00,10.0,0.0,-100.00,WNW,300,4.0,7.0,65,0.00,,,-99.99,,2013-02-25 14:31:00,
2013-02-25 07:41:00,10.0,1.0,-100.00,NW,305,4.0,7.0,64,0.00,,,-99.99,,2013-02-25 14:41:00,
2013-02-25 07:52:00,11.0,1.0,-100.00,WNW,285,4.0,9.0,64,0.00,,,-99.99,,2013-02-25 14:52:00,
2013-02-25 08:02:00,12.0,2.0,-100.00,WNW,300,3.0,9.0,63,0.00,,,-99.99,,2013-02-25 15:02:00,
2013-02-25 08:11:00,13.0,2.0,-100.00,WNW,295,5.0,9.0,61,0.00,,,-99.99,,2013-02-25 15:11:00,
2013-02-25 08:21:00,15.0,4.0,-100.00,WNW,295,2.0,7.0,59,0.00,,,-99.99,,2013-02-25 15:21:00,
2013-02-25 08:32:00,17.0,4.0,-100.00,WNW,300,2.0,6.0,58,0.00,,,-99.99,,2013-02-25 15:32:00,
2013-02-25 08:41:00,18.0,5.0,-100.00,WNW,290,3.0,6.0,56,0.00,,,-99.99,,2013-02-25 15:41:00,
2013-02-25 08:51:00,19.0,6.0,-100.00,WNW,295,2.0,4.0,55,0.00,,,-99.99,,2013-02-25 15:51:00,
2013-02-25 09:01:00,21.0,6.0,-100.00,West,275,2.0,4.0,53,0.00,,,-99.99,,2013-02-25 16:01:00,
2013-02-25 09:11:00,22.0,8.0,-100.00,WNW,285,1.0,3.0,52,0.00,,,-99.99,,2013-02-25 16:11:00,
2013-02-25 09:21:00,24.0,8.0,-100.00,NE,50,0.0,2.0,49,0.00,,,-99.99,,2013-02-25 16:21:00,
2013-02-25 09:31:00,25.0,8.0,-100.00,NNW,335,0.0,3.0,47,0.00,,,-99.99,,2013-02-25 16:31:00,
2013-02-25 09:41:00,26.0,8.0,-100.00,South,175,1.0,2.0,46,0.00,,,-99.99,,2013-02-25 16:41:00,
2013-02-25 09:51:00,26.0,8.0,-100.00,SW,220,1.0,3.0,46,0.00,,,-99.99,,2013-02-25 16:51:00,
2013-02-25 10:01:00,28.0,10.0,-100.00,SSE,150,4.0,8.0,46,0.00,,,-99.99,,2013-02-25 17:01:00,
2013-02-25 10:11:00,28.0,11.0,-100.00,SE,135,5.0,9.0,47,0.00,,,-99.99,,2013-02-25 17:11:00,
2013-02-25 10:21:00,29.0,12.0,-100.00,SE,145,7.0,12.0,48,0.00,,,-99.99,,2013-02-25 17:21:00,
2013-02-25 10:31:00,29.0,12.0,-100.00,SSE,150,6.0,11.0,49,0.00,,,-99.99,,2013-02-25 17:31:00,
2013-02-25 10:41:00,30.0,13.0,-100.00,SE,130,6.0,10.0,48,0.00,,,-99.99,,2013-02-25 17:41:00,
2013-02-25 10:52:00,29.0,12.0,-100.00,SSE,165,7.0,14.0,48,0.00,,,-99.99,,2013-02-25 17:52:00,
2013-02-25 11:01:00,29.0,12.0,-100.00,South,170,9.0,13.0,47,0.00,,,-99.99,,2013-02-25 18:01:00,
2013-02-25 11:12:00,30.0,12.0,-100.00,SSE,155,6.0,15.0,47,0.00,,,-99.99,,2013-02-25 18:12:00,
2013-02-25 11:21:00,31.0,13.0,-100.00,SSE,165,7.0,13.0,47,0.00,,,-99.99,,2013-02-25 18:21:00,
2013-02-25 11:32:00,31.0,13.0,-100.00,South,180,8.0,14.0,47,0.00,,,-99.99,,2013-02-25 18:32:00,
2013-02-25 11:41:00,32.0,15.0,-100.00,SSE,155,6.0,12.0,47,0.00,,,-99.99,,2013-02-25 18:41:00,
2013-02-25 11:51:00,32.0,15.0,-100.00,SE,140,6.0,12.0,47,0.00,,,-99.99,,2013-02-25 18:51:00,
2013-02-25 12:01:00,33.0,16.0,-100.00,SE,145,5.0,12.0,48,0.00,,,-99.99,,2013-02-25 19:01:00,
2013-02-25 12:11:00,34.0,16.0,-100.00,SSE,160,4.0,11.0,47,0.00,,,-99.99,,2013-02-25 19:11:00,
2013-02-25 12:21:00,35.0,17.0,-100.00,SSE,155,5.0,12.0,47,0.00,,,-99.99,,2013-02-25 19:21:00,
2013-02-25 12:31:00,35.0,17.0,-100.00,SE,145,5.0,12.0,47,0.00,,,-99.99,,2013-02-25 19:31:00,
2013-02-25 12:41:00,35.0,17.0,-100.00,SE,130,4.0,12.0,47,0.00,,,-99.99,,2013-02-25 19:41:00,
2013-02-25 12:52:00,37.0,18.0,-100.00,SSE,150,6.0,12.0,47,0.00,,,-99.99,,2013-02-25 19:52:00,
2013-02-25 13:01:00,37.0,18.0,-100.00,SSE,155,7.0,13.0,45,0.00,,,-99.99,,2013-02-25 20:01:00,
2013-02-25 13:11:00,38.0,19.0,-100.00,SE,145,6.0,12.0,45,0.00,,,-99.99,,2013-02-25 20:11:00,
2013-02-25 13:21:00,38.0,18.0,-100.00,SSE,150,6.0,12.0,44,0.00,,,-99.99,,2013-02-25 20:21:00,
2013-02-25 13:31:00,39.0,19.0,-100.00,ESE,115,4.0,10.0,44,0.00,,,-99.99,,2013-02-25 20:31:00,
2013-02-25 13:41:00,39.0,19.0,-100.00,SSE,155,4.0,10.0,43,0.00,,,-99.99,,2013-02-25 20:41:00,
2013-02-25 13:52:00,40.0,19.0,-100.00,ESE,115,4.0,12.0,43,0.00,,,-99.99,,2013-02-25 20:52:00,
2013-02-25 14:01:00,39.0,19.0,-100.00,South,175,8.0,14.0,42,0.00,,,-99.99,,2013-02-25 21:01:00,
2013-02-25 14:11:00,41.0,20.0,-100.00,SE,145,4.0,9.0,43,0.00,,,-99.99,,2013-02-25 21:11:00,
2013-02-25 14:21:00,41.0,19.0,-100.00,SSE,165,6.0,11.0,41,0.00,,,-99.99,,2013-02-25 21:21:00,
2013-02-25 14:31:00,42.0,20.0,-100.00,SSE,155,5.0,10.0,40,0.00,,,-99.99,,2013-02-25 21:31:00,
2013-02-25 14:41:00,43.0,20.0,-100.00,SSE,150,4.0,9.0,39,0.00,,,-99.99,,2013-02-25 21:41:00,
2013-02-25 14:51:00,42.0,19.0,-100.00,SE,145,6.0,9.0,39,0.00,,,-99.99,,2013-02-25 21:51:00,
2013-02-25 15:01:00,43.0,19.0,-100.00,SE,135,4.0,14.0,38,0.00,,,-99.99,,2013-02-25 22:01:00,
2013-02-25 15:11:00,43.0,19.0,-100.00,South,175,7.0,11.0,37,0.00,,,-99.99,,2013-02-25 22:11:00,
2013-02-25 15:21:00,44.0,19.0,-100.00,SE,130,5.0,11.0,37,0.00,,,-99.99,,2013-02-25 22:21:00,
2013-02-25 15:31:00,43.0,19.0,-100.00,SSE,165,7.0,13.0,36,0.00,,,-99.99,,2013-02-25 22:31:00,
2013-02-25 15:41:00,44.0,18.0,-100.00,SE,140,7.0,17.0,34,0.00,,,-99.99,,2013-02-25 22:41:00,
2013-02-25 15:51:00,43.0,17.0,-100.00,South,175,4.0,16.0,33,0.00,,,-99.99,,2013-02-25 22:51:00,
2013-02-25 16:01:00,44.0,17.0,-100.00,South,175,6.0,9.0,33,0.00,,,-99.99,,2013-02-25 23:01:00,
2013-02-25 16:11:00,44.0,17.0,-100.00,SE,145,6.0,11.0,33,0.00,,,-99.99,,2013-02-25 23:11:00,
2013-02-25 16:22:00,43.0,15.0,-100.00,SSE,165,9.0,14.0,32,0.00,,,-99.99,,2013-02-25 23:22:00,
2013-02-25 16:31:00,42.0,15.0,-100.00,SE,135,7.0,12.0,32,0.00,,,-99.99,,2013-02-25 23:31:00,
2013-02-25 16:41:00,43.0,15.0,-100.00,ESE,115,4.0,14.0,32,0.00,,,-99.99,,2013-02-25 23:41:00,
2013-02-25 16:52:00,44.0,16.0,-100.00,NE,45,1.0,9.0,31,0.00,,,-99.99,,2013-02-25 23:52:00,
2013-02-25 17:01:00,43.0,15.0,-100.00,South,170,4.0,9.0,31,0.00,,,-99.99,,2013-02-26 00:01:00,
2013-02-25 17:11:00,43.0,15.0,-100.00,SE,135,4.0,11.0,31,0.00,,,-99.99,,2013-02-26 00:11:00,
2013-02-25 17:21:00,41.0,14.0,-100.00,SSE,155,6.0,9.0,32,0.00,,,-99.99,,2013-02-26 00:21:00,
2013-02-25 17:32:00,39.0,13.0,-100.00,SE,135,4.0,10.0,33,0.00,,,-99.99,,2013-02-26 00:32:00,
2013-02-25 17:41:00,38.0,13.0,-100.00,South,190,4.0,8.0,34,0.00,,,-99.99,,2013-02-26 00:41:00,
2013-02-25 17:51:00,37.0,13.0,-100.00,ESE,110,2.0,5.0,36,0.00,,,-99.99,,2013-02-26 00:51:00,
2013-02-25 18:01:00,37.0,13.0,-100.00,ESE,110,4.0,7.0,37,0.00,,,-99.99,,2013-02-26 01:01:00,
2013-02-25 18:11:00,37.0,13.0,-100.00,SE,125,4.0,6.0,36,0.00,,,-99.99,,2013-02-26 01:11:00,
2013-02-25 18:21:00,36.0,13.0,-100.00,SSE,150,4.0,6.0,38,0.00,,,-99.99,,2013-02-26 01:21:00,
2013-02-25 18:31:00,35.0,13.0,-100.00,SSE,150,3.0,7.0,39,0.00,,,-99.99,,2013-02-26 01:31:00,
2013-02-25 18:41:00,35.0,12.0,-100.00,South,175,7.0,11.0,39,0.00,,,-99.99,,2013-02-26 01:41:00,
2013-02-25 18:51:00,34.0,12.0,-100.00,SSW,205,4.0,10.0,39,0.00,,,-99.99,,2013-02-26 01:51:00,
2013-02-25 19:01:00,34.0,12.0,-100.00,South,190,6.0,9.0,40,0.00,,,-99.99,,2013-02-26 02:01:00,
2013-02-25 19:11:00,33.0,12.0,-100.00,NW,310,0.0,4.0,40,0.00,,,-99.99,,2013-02-26 02:11:00,
2013-02-25 19:21:00,31.0,11.0,-100.00,WNW,295,2.0,5.0,42,0.00,,,-99.99,,2013-02-26 02:21:00,
2013-02-25 19:32:00,30.0,11.0,-100.00,WNW,290,4.0,6.0,45,0.00,,,-99.99,,2013-02-26 02:32:00,
2013-02-25 19:41:00,29.0,11.0,-100.00,WNW,295,3.0,6.0,46,0.00,,,-99.99,,2013-02-26 02:41:00,
2013-02-25 19:52:00,29.0,11.0,-100.00,WSW,250,1.0,6.0,47,0.00,,,-99.99,,2013-02-26 02:52:00,
2013-02-25 20:01:00,28.0,11.0,-100.00,SW,235,1.0,4.0,48,0.00,,,-99.99,,2013-02-26 03:01:00,
2013-02-25 20:11:00,27.0,11.0,-100.00,WSW,245,1.0,2.0,51,0.00,,,-99.99,,2013-02-26 03:11:00,
2013-02-25 20:21:00,27.0,12.0,-100.00,West,270,1.0,3.0,52,0.00,,,-99.99,,2013-02-26 03:21:00,
2013-02-25 20:31:00,26.0,12.0,-100.00,WNW,285,0.0,3.0,54,0.00,,,-99.99,,2013-02-26 03:31:00,
2013-02-25 20:41:00,27.0,13.0,-100.00,NW,310,2.0,6.0,55,0.00,,,-99.99,,2013-02-26 03:41:00,
2013-02-25 20:52:00,27.0,13.0,-100.00,WNW,300,2.0,7.0,55,0.00,,,-99.99,,2013-02-26 03:52:00,
2013-02-25 21:01:00,27.0,13.0,-100.00,West,280,1.0,3.0,55,0.00,,,-99.99,,2013-02-26 04:01:00,
2013-02-25 21:11:00,27.0,13.0,-100.00,NW,325,2.0,4.0,55,0.00,,,-99.99,,2013-02-26 04:11:00,
2013-02-25 21:21:00,27.0,13.0,-100.00,WNW,285,2.0,7.0,55,0.00,,,-99.99,,2013-02-26 04:21:00,
2013-02-25 21:31:00,26.0,13.0,-100.00,NW,305,2.0,6.0,55,0.00,,,-99.99,,2013-02-26 04:31:00,
2013-02-25 21:42:00,26.0,13.0,-100.00,WNW,295,3.0,7.0,56,0.00,,,-99.99,,2013-02-26 04:42:00,
2013-02-25 21:51:00,25.0,12.0,-100.00,WNW,290,4.0,7.0,57,0.00,,,-99.99,,2013-02-26 04:51:00,
2013-02-25 22:01:00,25.0,13.0,-100.00,WNW,295,1.0,6.0,57,0.00,,,-99.99,,2013-02-26 05:01:00,
2013-02-25 22:11:00,25.0,13.0,-100.00,NW,315,1.0,2.0,58,0.00,,,-99.99,,2013-02-26 05:11:00,
2013-02-25 22:21:00,24.0,12.0,-100.00,West,280,1.0,5.0,59,0.00,,,-99.99,,2013-02-26 05:21:00,
2013-02-25 22:31:00,24.0,13.0,-100.00,WNW,300,4.0,9.0,59,0.00,,,-99.99,,2013-02-26 05:31:00,
2013-02-25 22:42:00,25.0,13.0,-100.00,West,280,0.0,4.0,59,0.00,,,-99.99,,2013-02-26 05:42:00,
2013-02-25 22:52:00,24.0,13.0,-100.00,NW,310,1.0,7.0,60,0.00,,,-99.99,,2013-02-26 05:52:00,
2013-02-25 23:01:00,24.0,13.0,-100.00,NW,325,1.0,4.0,61,0.00,,,-99.99,,2013-02-26 06:01:00,
2013-02-25 23:11:00,23.0,12.0,-100.00,WNW,300,3.0,6.0,61,0.00,,,-99.99,,2013-02-26 06:11:00,
2013-02-25 23:21:00,23.0,12.0,-100.00,WNW,285,1.0,4.0,62,0.00,,,-99.99,,2013-02-26 06:21:00,
2013-02-25 23:31:00,23.0,13.0,-100.00,NNW,340,1.0,7.0,63,0.00,,,-99.99,,2013-02-26 06:31:00,
2013-02-25 23:41:00,23.0,13.0,-100.00,West,265,5.0,7.0,63,0.00,,,-99.99,,2013-02-26 06:41:00,
2013-02-25 23:51:00,23.0,13.0,-100.00,WNW,300,2.0,6.0,63,0.00,,,-99.99,,2013-02-26 06:51:00,